Meteo Giornale » Osservazioni meteo Francia » Cannes

ore: 02:30 - Osservazioni Meteo Cannes
Lat. 43° 33' N Lon. 6° 57' E Alt. 3 metri s.l.m.

sereno Europe/Paris

21 °C

Sereno

Temp. 24 Ore

19 °C

29 °C

Nord

3.7 Km/h

Dew point 19 °C

Umidità 88 %

Visibilità  10 Km

Il sole sorge alle ore 06:16

Il sole tramonta alle ore 21:01

Data e Ora Cielo e Fenomeni T °C DP °C Um. % Pres. hPa Vis. km Vento km/h
Oggi h: 02:30 sereno Sereno 21 19 88 1013 10 N 3.7
Oggi h: 02:00 sereno Sereno 22 19 83 1014 10 N 5.5
Oggi h: 01:30 sereno Sereno 22 20 88 1014 10 N 5.5
Oggi h: 01:00 sereno Sereno 22 20 88 1014 10 N 5.5
Oggi h: 00:30 sereno Sereno 22 21 94 1014 10 N 5.5
Oggi h: 00:00 sereno Sereno 23 21 88 1014 10 N 3.7
Ieri h: 23:30 sereno Sereno 23 21 88 1014 10 N 5.5
Ieri h: 23:00 sereno Sereno 24 21 83 1014 10 N 3.7
Ieri h: 22:30 sereno Sereno 25 22 83 1014 10 N 1.8
Ieri h: 22:00 sereno Sereno 25 22 83 1014 10 N 3.7
Ieri h: 21:30 sereno Sereno 26 22 78 1013 10 N 5.5
Ieri h: 21:00 sereno Sereno 26 22 78 1013 10 N 1.8
Ieri h: 20:30 sereno Sereno 26 22 78 1013 10 N 3.7
Ieri h: 19:30 sereno Sereno 27 22 74 1013 10 S 14.8
Ieri h: 19:00 sereno Sereno 28 22 69 1013 10 S/SE 11.1
Ieri h: 18:30 sereno Sereno 29 20 58 1013 10 S 11.1
Ieri h: 18:00 sereno Sereno 29 22 66 1013 10 S 16.7
Ieri h: 17:30 sereno Sereno 28 22 69 1013 10 S 24
Ieri h: 17:00 sereno Sereno 28 22 69 1014 10 S 20.3
Ieri h: 16:30 sereno Sereno 28 22 69 1014 10 S 20.3
Ieri h: 16:00 sereno Sereno 28 22 69 1014 10 S 18.5
Ieri h: 15:30 sereno Sereno 28 22 69 1014 10 S/SE 16.7
Ieri h: 15:00 sereno Sereno 28 23 74 1014 10 S 14.8
Ieri h: 14:30 sereno Sereno 27 23 78 1014 10 S 16.7
Ieri h: 14:00 sereno Sereno 28 22 69 1014 10 S 14.8
Ieri h: 13:30 sereno Sereno 27 21 69 1014 10 S 13
Ieri h: 13:00 sereno Sereno 28 22 69 1014 10 S 13
Ieri h: 12:30 sereno Sereno 28 22 69 1014 10 S 11.1
Ieri h: 12:00 sereno Sereno 27 22 74 1014 10 S 11.1
Ieri h: 11:30 nuvoloso Nuvoloso 28 21 65 1014 10 SE 14.8
Ieri h: 11:00 molto_nuvoloso Molto Nuvoloso 28 22 69 1014 10 S 11.1
Ieri h: 10:30 poco_nuvoloso Poco Nuvoloso 27 22 74 1014 10 S/SE 9.3
Ieri h: 10:00 molto_nuvoloso Molto Nuvoloso 27 22 74 1014 10 N 3.7
Ieri h: 09:30 molto_nuvoloso Molto Nuvoloso 26 21 73 1014 10 N 3.7
Ieri h: 09:00 sereno Sereno 24 20 78 1014 10 N 5.5
Ieri h: 08:30 nuvoloso Nuvoloso 23 19 78 1014 10 N 5.5
Ieri h: 08:00 sereno Sereno 21 18 82 1013 10 N/NE 7.4
Ieri h: 07:30 poco_nuvoloso Poco Nuvoloso 20 18 88 1013 10 N 7.4
Ieri h: 07:00 molto_nuvoloso Molto Nuvoloso 19 18 93 1013 10 N 7.4
Ieri h: 06:30 poco_nuvoloso Poco Nuvoloso 19 17 88 1013 10 N/NE 7.4
Ieri h: 06:00 molto_nuvoloso Molto Nuvoloso 19 17 88 1013 10 N/NE 9.3
Ieri h: 05:30 molto_nuvoloso Molto Nuvoloso 19 17 88 1013 10 N 7.4
Ieri h: 05:00 poco_nuvoloso Poco Nuvoloso 19 17 88 1014 10 N 5.5
Ieri h: 04:30 poco_nuvoloso Poco Nuvoloso 19 18 93 1014 10 N 5.5
Ieri h: 04:00 sereno Sereno 19 18 93 1013 10 N 7.4